Erie, PA

6:36 AM EST on November 14, 2019 (GMT -0500)
Erie International

Weather History for KERI - September, 2019

Change the Weather History Date:

Sunday, September 29, 2019

  Actual Average Record
Temperature  
Mean Temperature 65 °F 59 °F  
Max Temperature 69 °F 67 °F 89 °F (1954)
Min Temperature 61 °F 51 °F 35 °F (1969)
Degree Days  
Heating Degree Days 0 7  
Month to date heating degree days 11 97  
Since 1 July heating degree days 12 115  
Cooling Degree Days 0 1  
Month to date cooling degree days 131 69  
Year to date cooling degree days 821 627  
Growing Degree Days 15 (Base 50)    
Moisture  
Dew Point 55 °F    
Average Humidity 71    
Maximum Humidity 78    
Minimum Humidity 61    
Precipitation  
Precipitation T in 0.17 in 1.64 in (1999)
Month to date precipitation 3.31 4.45  
Year to date precipitation 29.63 30.28  
Snow  
Snow 0.00 in 0.00 in - ()
Month to date snowfall 0.0 0.0  
Since 1 July snowfall 0.0 0.0  
Since 1 September snowfall 0.0 0.0  
Snow Depth 0.00 in    
Sea Level Pressure  
Sea Level Pressure 30.28 in    
Wind  
Wind Speed 10 mph ()    
Max Wind Speed 23 mph    
Max Gust Speed 28 mph    
Visibility 10.0 miles    
Events Rain    
T = Trace of Precipitation, MM = Missing Value Source: Averaged Metar Reports

Daily Weather History Graph

Daily Weather History Graph

Search for Another Location

Airport or City:

Astronomy

Sep. 29, 2019 Rise Set
Actual Time 7:15 AM EDT 7:06 PM EDT
Civil Twilight 6:47 AM EDT 7:33 PM EDT
Nautical Twilight 6:14 AM EDT 8:06 PM EDT
Astronomical Twilight 5:42 AM EDT 8:39 PM EDT
Moon 8:04 AM EDT (9/29) 8:04 PM EDT (9/29)
Length of Visible Light 12h 46m
Length of Day
11h 50m
New Moon, 1% of the Moon is Illuminated
Sep 29
New Moon
Oct 5
First Quarter
Oct 13
Full
Oct 21
Last Quarter
Oct 27
New

Hourly Weather History & Observations

Time (EDT) Temp. Dew Point Humidity Pressure Visibility Wind Dir Wind Speed Gust Speed Precip Events Conditions
12:51 AM 66.0 °F 57.9 °F 75% 30.23 in 10.0 mi ENE 10.4 mph - N/A   Overcast
1:51 AM 64.9 °F 55.9 °F 73% 30.25 in 10.0 mi ENE 10.4 mph - N/A   Overcast
2:51 AM 64.9 °F 57.0 °F 75% 30.25 in 10.0 mi ENE 12.7 mph - N/A   Overcast
3:17 AM 64.0 °F 57.0 °F 78% 30.25 in 10.0 mi NE 15.0 mph - N/A   Overcast
3:28 AM 64.0 °F 57.0 °F 78% 30.25 in 10.0 mi NE 11.5 mph - N/A   Overcast
3:51 AM 64.0 °F 55.0 °F 73% 30.26 in 10.0 mi ENE 13.8 mph - N/A   Overcast
4:51 AM 63.0 °F 54.0 °F 72% 30.27 in 10.0 mi ENE 11.5 mph - N/A   Overcast
5:51 AM 63.0 °F 55.0 °F 75% 30.27 in 10.0 mi NE 12.7 mph - N/A   Overcast
6:51 AM 62.1 °F 55.0 °F 78% 30.29 in 10.0 mi ENE 9.2 mph - N/A   Overcast
7:26 AM 62.1 °F 55.0 °F 78% 30.30 in 10.0 mi ENE 9.2 mph - N/A   Overcast
7:51 AM 61.0 °F 54.0 °F 78% 30.31 in 10.0 mi East 6.9 mph - N/A   Mostly Cloudy
8:51 AM 64.0 °F 54.0 °F 70% 30.32 in 10.0 mi ENE 5.8 mph - N/A   Partly Cloudy
9:51 AM 66.9 °F 53.1 °F 61% 30.33 in 10.0 mi NE 10.4 mph - N/A   Clear
10:26 AM 66.9 °F 55.0 °F 66% 30.34 in 10.0 mi NNE 11.5 mph - N/A   Mostly Cloudy
10:51 AM 68.0 °F 55.9 °F 65% 30.32 in 10.0 mi NNE 10.4 mph - N/A   Mostly Cloudy
11:01 AM 69.1 °F 57.0 °F 65% 30.33 in 10.0 mi NE 15.0 mph - N/A   Mostly Cloudy
11:51 AM 66.9 °F 55.9 °F 68% 30.33 in 10.0 mi NE 17.3 mph - N/A   Clear
12:51 PM 64.9 °F 55.9 °F 73% 30.32 in 10.0 mi NE 16.1 mph - 0.00 in   Partly Cloudy
1:51 PM 66.0 °F 55.9 °F 70% 30.30 in 10.0 mi NE 18.4 mph - N/A   Partly Cloudy
2:51 PM 64.9 °F 55.9 °F 73% 30.30 in 10.0 mi NE 17.3 mph 25.3 mph N/A   Partly Cloudy
3:51 PM 64.0 °F 55.0 °F 73% 30.30 in 10.0 mi NE 13.8 mph 24.2 mph N/A   Mostly Cloudy
4:51 PM 63.0 °F 55.0 °F 75% 30.27 in 10.0 mi ENE 18.4 mph - 0.00 in Rain Light Rain
5:51 PM 64.0 °F 54.0 °F 70% 30.26 in 10.0 mi NE 12.7 mph - 0.00 in   Clear
6:51 PM 63.0 °F 53.1 °F 70% 30.25 in 10.0 mi ENE 12.7 mph - N/A   Clear
7:51 PM 63.0 °F 52.0 °F 67% 30.24 in 10.0 mi ENE 10.4 mph - N/A   Clear
8:51 PM 63.0 °F 52.0 °F 67% 30.23 in 10.0 mi ENE 10.4 mph - N/A   Scattered Clouds
9:51 PM 63.0 °F 51.1 °F 65% 30.23 in 10.0 mi ENE 5.8 mph - N/A   Partly Cloudy
10:51 PM 63.0 °F 52.0 °F 67% 30.23 in 10.0 mi Calm Calm - N/A   Overcast
11:51 PM 63.0 °F 53.1 °F 70% 30.23 in 10.0 mi ENE 6.9 mph - N/A   Overcast